Other Public Products
Issued by NWS Charleston, SC

Current Version | Previous Version | Graphics & Text | Print | Product List | Glossary On
Versions: 1 2 3 4 5 6 7 8 9 10 11 12 13 14 15 16 17 18 19 20 21 22 23 24 25 26 27 28 29 30 31 32 33 34 35 36 37 38 39 40 41 42 43 44 45 46 47 48 49 50
000 FPUS82 KCHS 221027 OPUCHS TEST...KCHS/KSAV Gateway Observations...TEST National Weather Service Charleston SC 500 AM EST WED NOV 22 2017 NOTE: "fair" indicates few or no clouds below 12,000 feet with no significant weather and/or obstructions to visibility. SCZ050-WAZ558-NCZ071-TXZ119-213-PAZ071-DCZ001-FLZ074-172-MI076- NYZ176-178-MAZ016-IL014-TNZ027-NJZ106-GAZ044-MD014-221100- ...Gateway Observations for Charleston International... CITY SKY/WX TMP DP RH WIND PRES REMARKS Chas Airport CLOUDY 61 60 97 NW9G18 29.94S Seattle LGT RAIN 56 55 97 SE6 29.96R Charlotte FOG 48 47 96 NW8 29.98S VSB 1/4 Dallas DFW CLEAR 47 21 35 N16G24 30.30R Dallas Love CLEAR 47 23 38 N15 30.31R Philladelphia CLOUDY 52 47 83 S5 29.91F Wash National CLOUDY 53 50 89 SW3 29.95R Baltimore LGT RAIN 49 48 97 CALM 29.90F Miami CLEAR 71 70 96 CALM 29.91S Detroit CLOUDY 32 20 61 N10 30.17R WCI 24 Newark LGT RAIN 50 42 74 CALM 29.93F Laguardia CLOUDY 53 45 74 S5 29.93F J F K LGT RAIN 50 47 89 CALM 29.94F Boston Logan CLOUDY 49 46 90 S7 29.99F Ft. Lauderdale CLEAR 71 71 100 CALM 29.90S Chicago O`Hare PTCLDY 25 15 66 NW8 30.28R WCI 16 Chicago Midway CLEAR 26 14 60 N9 30.29R WCI 17 Houston Bush MOCLDY 60 56 86 N12 30.13R Houston Hobby CLOUDY 60 56 86 N18 30.10R Nashville CLEAR 38 28 67 N12 30.20R WCI 30 Atlanta PTCLDY 52 52 100 CALM 30.01S $$ GAZ044-118-TXZ119-213-NCZ071-DCZ001-MDZ014-506-PAZ021-071-NJZ106- NYZ176-178-MAZ106-OHZ011-021-055-MIZ076-KYZ091-ILZ014-INZ047- MNZ060-ONZ431-221100- ...Gateway Observations for Savannah International... CITY SKY/WX TMP DP RH WIND PRES REMARKS Savannah Arpt CLOUDY 60 60 100 W9 29.97R FOG Atlanta PTCLDY 52 52 100 CALM 30.01S Charlotte FOG 48 47 96 NW8 29.98S VSB 1/4 Dallas DFW CLEAR 47 21 35 N16G24 30.30R Houston Bush MOCLDY 60 56 86 N12 30.13R Wash National CLOUDY 53 50 89 SW3 29.95R Wash Dulles CLOUDY 50 43 77 NW5 29.92S Baltimore LGT RAIN 49 48 97 CALM 29.90F Philadelphia CLOUDY 52 47 83 S5 29.91F Newark LGT RAIN 50 42 74 CALM 29.93F Laguardia CLOUDY 53 45 74 S5 29.93F J F K LGT RAIN 50 47 89 CALM 29.94F Boston CLOUDY 49 46 90 S7 29.99F Pittsburg FLURRIES 35 34 96 W9 30.03R WCI 28 Akron CLOUDY 35 31 85 NW6 30.06R WCI 30 Cleveland FLURRIES 37 29 72 NW13 30.12R WCI 29 Cincinnati CLEAR 29 26 89 NW8 30.19R WCI 21 Columbus CLEAR 32 29 89 NW8 30.15R WCI 25 Detroit CLOUDY 32 20 61 N10 30.17R WCI 24 Chicago O`Hare PTCLDY 25 15 66 NW8 30.28R WCI 16 Minneapolis CLOUDY 15 10 80 W5 30.34F WCI 8 Indianapolis CLEAR 26 20 77 NW8 30.25R WCI 18 Toronto Canada MOCLDY 34 25 69 NW14G22 30.00R WCI 24 $$

USA.gov is the U.S. government's official web portal to all federal, state and local government web resources and services.